Location: Praha
(50.0830°N, 14.4670°E)
Time: 15:13:18
(UTC+02:00)

ISS - Visible Passes

Search period start: 18 September 2018 00:00
Search period end: 28 September 2018 00:00
Orbit: 402 x 408 km, 51.6° (Epoch: 18 September)

Date Brightness Start Highest point End Pass type
(mag) Time Alt. Az. Time Alt. Az. Time Alt. Az.
22 Sep -2.0 20:26:56 10° S 20:28:32 18° SSE 20:28:32 18° SSE visible
23 Sep -1.6 19:36:13 10° SSE 19:37:35 12° SE 19:38:57 10° ESE visible
23 Sep -2.1 21:10:17 10° SW 21:11:51 25° SW 21:11:51 25° SW visible
24 Sep -3.1 20:18:32 10° SW 20:21:34 35° SSE 20:22:16 31° ESE visible
24 Sep -0.7 21:54:37 10° W 21:54:57 12° W 21:54:57 12° W visible
25 Sep -2.4 19:27:01 10° SSW 19:29:40 23° SE 19:32:20 10° E visible
25 Sep -3.3 21:02:33 10° WSW 21:05:12 54° WSW 21:05:12 54° WSW visible
26 Sep -3.8 20:10:33 10° WSW 20:13:49 61° SSE 20:15:20 28° E visible
26 Sep -1.0 21:47:04 10° W 21:48:00 18° W 21:48:00 18° W visible
27 Sep -3.2 19:18:41 10° SW 19:21:48 41° SSE 19:24:56 10° E visible
27 Sep -3.6 20:54:56 10° W 20:58:01 69° NW 20:58:01 69° NW visible
